WXM80 ListenWXM80 Stop

You find our weather info also at:

UK Metoffice

WeatherCloud

Weather Underground

Northeastern Weather Network

AWEKAS

Citizen Weather Observer Program (CWOP)

HAMweather, WeatherForYou, PWS Weather


Weather Underground History page Text

Daily Summary for July 11, 2016 Units:  English    Metric   Both
« Previous Day
Next Day »
Daily Weekly Monthly Yearly Custom
  High: Low: Average:
Temperature: 83.3 °F 66.8 °F 73.5 °F
Dew Point: 66.3 °F 60.4 °F 62.9 °F
Humidity: 88 % 49 % 71 %
Wind Speed: 6.0 mph 0.0 mph 1.4 mph
Wind Gust: 11.5 mph - -
Wind:- - SSE
Pressure: 30.08 in 29.92 in -
Precipitation: 0.00 in    
Historical Graphs
 
 
Tabular Data for July 11, 2016
Time Temperature Dew Point Pressure Wind Wind Speed Wind Gust Humidity Rainfall Rate (Hourly)
00:04 70.0 °F 64.2 °F 29.92 in Calm   1.2 mph 82 % 0.00 in
00:09 69.9 °F 64.2 °F 29.93 in NW 1.0 mph 3.5 mph 82 % 0.00 in
00:14 69.8 °F 64.1 °F 29.93 in NW 0.1 mph 1.2 mph 82 % 0.00 in
00:19 69.8 °F 64.1 °F 29.93 in NW 0.1 mph   82 % 0.00 in
00:24 69.7 °F 64.0 °F 29.93 in Calm     82 % 0.00 in
00:29 69.7 °F 64.0 °F 29.93 in Calm   1.2 mph 82 % 0.00 in
00:34 69.6 °F 63.9 °F 29.93 in NW 0.7 mph 2.3 mph 82 % 0.00 in
00:39 69.5 °F 63.8 °F 29.94 in WNW 0.2 mph 2.3 mph 82 % 0.00 in
00:44 69.4 °F 63.7 °F 29.94 in NNE 1.1 mph 3.5 mph 82 % 0.00 in
00:50 69.2 °F 63.8 °F 29.94 in Calm     83 % 0.00 in
00:55 69.2 °F 63.8 °F 29.94 in NNE 0.1 mph 2.3 mph 83 % 0.00 in
01:00 69.1 °F 63.7 °F 29.95 in NW 0.4 mph 2.3 mph 83 % 0.00 in
01:05 69.0 °F 63.6 °F 29.95 in NW 0.2 mph 1.2 mph 83 % 0.00 in
01:10 68.9 °F 63.5 °F 29.94 in Calm     83 % 0.00 in
01:15 68.8 °F 63.4 °F 29.95 in Calm   1.0 mph 83 % 0.00 in
01:20 68.8 °F 63.4 °F 29.95 in NNW 1.1 mph 3.0 mph 83 % 0.00 in
01:25 68.7 °F 63.7 °F 29.95 in NNE 1.4 mph 3.5 mph 84 % 0.00 in
01:30 68.6 °F 63.6 °F 29.95 in NNW 1.2 mph 2.0 mph 84 % 0.00 in
01:35 68.5 °F 63.5 °F 29.95 in Calm   2.3 mph 84 % 0.00 in
01:41 68.4 °F 63.4 °F 29.96 in North 1.0 mph 5.0 mph 84 % 0.00 in
01:46 68.3 °F 63.3 °F 29.96 in NNW 0.4 mph 3.5 mph 84 % 0.00 in
01:51 68.3 °F 63.3 °F 29.96 in Calm   2.0 mph 84 % 0.00 in
01:56 68.2 °F 63.2 °F 29.95 in Calm   2.0 mph 84 % 0.00 in
02:01 68.2 °F 63.5 °F 29.95 in NNW 0.6 mph 2.3 mph 85 % 0.00 in
02:06 68.1 °F 63.4 °F 29.96 in Calm   2.0 mph 85 % 0.00 in
02:11 68.1 °F 63.4 °F 29.96 in NNW 3.0 mph 7.0 mph 85 % 0.00 in
02:16 68.0 °F 63.3 °F 29.96 in WNW 2.0 mph 6.0 mph 85 % 0.00 in
02:21 68.0 °F 63.3 °F 29.96 in WNW 2.0 mph 6.0 mph 85 % 0.00 in
02:26 67.9 °F 63.2 °F 29.96 in WNW 2.0 mph 7.0 mph 85 % 0.00 in
02:31 67.9 °F 63.2 °F 29.96 in WNW 1.0 mph 3.0 mph 85 % 0.00 in
02:36 67.9 °F 63.2 °F 29.96 in WNW 2.0 mph 5.0 mph 85 % 0.00 in
02:41 67.9 °F 63.2 °F 29.97 in WNW 2.0 mph 5.0 mph 85 % 0.00 in
02:46 67.9 °F 63.2 °F 29.97 in WNW 1.0 mph 3.5 mph 85 % 0.00 in
02:51 67.9 °F 63.6 °F 29.97 in WNW 2.0 mph 4.0 mph 86 % 0.00 in
02:56 67.9 °F 63.6 °F 29.96 in WNW 1.0 mph 5.0 mph 86 % 0.00 in
03:01 67.8 °F 63.5 °F 29.96 in WNW 2.7 mph 3.5 mph 86 % 0.00 in
03:06 67.8 °F 63.5 °F 29.96 in NW 2.0 mph 5.0 mph 86 % 0.00 in
03:10 67.7 °F 63.4 °F 29.97 in Calm   2.0 mph 86 % 0.00 in
03:16 67.7 °F 63.4 °F 29.96 in NW 1.0 mph 3.0 mph 86 % 0.00 in
03:21 67.6 °F 62.9 °F 29.97 in Calm   4.0 mph 85 % 0.00 in
03:26 67.6 °F 63.3 °F 29.97 in Calm   2.0 mph 86 % 0.00 in
03:30 67.5 °F 63.2 °F 29.97 in North 1.0 mph 4.0 mph 86 % 0.00 in
03:35 67.5 °F 63.2 °F 29.97 in North 1.1 mph 3.0 mph 86 % 0.00 in
03:41 67.4 °F 63.4 °F 29.97 in Calm   4.0 mph 87 % 0.00 in
03:45 67.4 °F 63.1 °F 29.97 in NNW 1.0 mph 7.0 mph 86 % 0.00 in
03:50 67.4 °F 63.1 °F 29.97 in NNE 0.7 mph 2.3 mph 86 % 0.00 in
03:55 67.4 °F 63.1 °F 29.98 in Calm   7.0 mph 86 % 0.00 in
04:01 67.5 °F 63.5 °F 29.97 in NW 0.6 mph 2.3 mph 87 % 0.00 in
04:06 67.5 °F 63.5 °F 29.97 in Calm   2.3 mph 87 % 0.00 in
04:11 67.5 °F 63.5 °F 29.97 in WNW 0.7 mph 4.0 mph 87 % 0.00 in
04:16 67.5 °F 63.2 °F 29.98 in NW 1.6 mph 3.5 mph 86 % 0.00 in
04:21 67.5 °F 63.2 °F 29.98 in NE 1.3 mph 3.5 mph 86 % 0.00 in
04:26 67.5 °F 62.8 °F 29.98 in WNW 1.4 mph 4.6 mph 85 % 0.00 in
04:31 67.5 °F 62.8 °F 29.98 in NNW 0.6 mph 4.6 mph 85 % 0.00 in
04:36 67.5 °F 62.8 °F 29.99 in NNW 2.0 mph 3.5 mph 85 % 0.00 in
04:41 67.5 °F 62.8 °F 29.98 in NE 0.7 mph 4.0 mph 85 % 0.00 in
04:46 67.5 °F 63.2 °F 29.99 in NNE 2.6 mph 3.5 mph 86 % 0.00 in
04:52 67.4 °F 63.1 °F 29.99 in WNW 1.1 mph 4.6 mph 86 % 0.00 in
04:57 67.4 °F 63.1 °F 29.99 in NNW 3.5 mph 4.6 mph 86 % 0.00 in
05:02 67.3 °F 63.0 °F 29.99 in North 2.8 mph 7.0 mph 86 % 0.00 in
05:07 67.3 °F 63.0 °F 30.00 in WNW 2.2 mph 9.0 mph 86 % 0.00 in
05:12 67.3 °F 63.0 °F 30.00 in WNW 1.3 mph 3.5 mph 86 % 0.00 in
05:17 67.2 °F 62.9 °F 30.00 in NE 2.9 mph 4.6 mph 86 % 0.00 in
05:22 67.2 °F 63.2 °F 30.00 in NNE 1.8 mph 3.5 mph 87 % 0.00 in
05:27 67.1 °F 63.1 °F 30.00 in Calm   2.3 mph 87 % 0.00 in
05:32 67.1 °F 63.1 °F 30.00 in WNW 2.7 mph 4.0 mph 87 % 0.00 in
05:37 67.0 °F 63.0 °F 30.01 in NNW 2.0 mph 4.0 mph 87 % 0.00 in
05:43 67.0 °F 63.0 °F 30.01 in NNE 0.2 mph 2.3 mph 87 % 0.00 in
05:48 66.9 °F 62.9 °F 30.01 in NNW 1.5 mph 4.0 mph 87 % 0.00 in
05:53 66.9 °F 62.9 °F 30.01 in NNW 2.3 mph 3.5 mph 87 % 0.00 in
05:58 66.9 °F 63.2 °F 30.01 in Calm   2.3 mph 88 % 0.00 in
06:03 67.0 °F 63.3 °F 30.01 in NNW 1.4 mph 3.5 mph 88 % 0.00 in
06:08 67.0 °F 63.3 °F 30.02 in Calm     88 % 0.00 in
06:13 67.1 °F 63.1 °F 30.02 in North 3.3 mph 5.0 mph 87 % 0.00 in
06:18 67.1 °F 63.1 °F 30.02 in NNE 4.9 mph 8.1 mph 87 % 0.00 in
06:23 67.2 °F 62.9 °F 30.02 in NNE 4.8 mph 8.0 mph 86 % 0.00 in
06:28 67.2 °F 62.9 °F 30.02 in NNE 5.9 mph 11.5 mph 86 % 0.00 in
06:34 67.3 °F 62.6 °F 30.03 in NE 3.9 mph 9.2 mph 85 % 0.00 in
06:39 67.3 °F 62.6 °F 30.03 in NNE 4.5 mph 9.2 mph 85 % 0.00 in
06:44 67.3 °F 62.6 °F 30.03 in NNE 3.0 mph 6.0 mph 85 % 0.00 in
06:49 67.4 °F 62.7 °F 30.03 in NNE 2.4 mph 3.5 mph 85 % 0.00 in
06:54 67.4 °F 62.4 °F 30.03 in NNE 5.0 mph 9.2 mph 84 % 0.00 in
06:59 67.6 °F 62.6 °F 30.03 in NE 5.0 mph 6.9 mph 84 % 0.00 in
07:04 67.7 °F 62.7 °F 30.03 in North 4.2 mph 6.0 mph 84 % 0.00 in
07:09 67.9 °F 62.5 °F 30.03 in NNW 4.5 mph 9.2 mph 83 % 0.00 in
07:14 68.1 °F 62.7 °F 30.03 in North 5.9 mph 9.2 mph 83 % 0.00 in
07:19 68.2 °F 62.5 °F 30.03 in North 5.8 mph 9.2 mph 82 % 0.00 in
07:25 68.2 °F 62.5 °F 30.04 in North 3.3 mph 8.1 mph 82 % 0.00 in
07:30 68.2 °F 62.5 °F 30.04 in North 2.2 mph 8.1 mph 82 % 0.00 in
07:35 68.2 °F 62.5 °F 30.04 in NNE 3.3 mph 7.0 mph 82 % 0.00 in
07:40 68.3 °F 62.9 °F 30.04 in NNE 1.8 mph 4.6 mph 83 % 0.00 in
07:45 68.3 °F 62.9 °F 30.04 in NNW 3.6 mph 5.0 mph 83 % 0.00 in
07:50 68.4 °F 62.7 °F 30.04 in NNE 2.8 mph 4.6 mph 82 % 0.00 in
07:55 68.5 °F 63.1 °F 30.04 in NNW 3.3 mph 5.8 mph 83 % 0.00 in
08:00 68.7 °F 63.3 °F 30.04 in East 3.4 mph 5.0 mph 83 % 0.00 in
08:05 68.9 °F 63.2 °F 30.04 in NNE 3.6 mph 5.8 mph 82 % 0.00 in
08:10 69.0 °F 63.6 °F 30.04 in North 4.2 mph 6.9 mph 83 % 0.00 in
08:16 69.2 °F 62.8 °F 30.04 in NNE 2.0 mph 8.0 mph 80 % 0.00 in
08:21 69.3 °F 62.9 °F 30.05 in NE 5.2 mph 8.1 mph 80 % 0.00 in
08:26 69.4 °F 63.0 °F 30.05 in NNE 6.0 mph 8.0 mph 80 % 0.00 in
08:31 69.6 °F 63.1 °F 30.05 in NE 2.0 mph 7.0 mph 80 % 0.00 in
08:36 69.7 °F 62.9 °F 30.05 in NNE 2.4 mph 4.0 mph 79 % 0.00 in
08:41 69.8 °F 62.6 °F 30.05 in North 1.0 mph 7.0 mph 78 % 0.00 in
08:46 70.0 °F 63.2 °F 30.05 in NNE 3.0 mph 7.0 mph 79 % 0.00 in
08:51 70.1 °F 62.9 °F 30.04 in NNE 3.0 mph 3.5 mph 78 % 0.00 in
08:56 70.1 °F 63.3 °F 30.04 in NNE 1.0 mph 5.0 mph 79 % 0.00 in
09:01 70.1 °F 62.9 °F 30.04 in NNE 3.1 mph 4.6 mph 78 % 0.00 in
09:06 70.2 °F 63.4 °F 30.04 in North 2.6 mph 4.0 mph 79 % 0.00 in
09:11 70.1 °F 62.6 °F 30.05 in NNW 3.6 mph 5.8 mph 77 % 0.00 in
09:16 70.2 °F 63.0 °F 30.05 in NNE 0.4 mph 2.3 mph 78 % 0.00 in
09:21 70.2 °F 63.0 °F 30.05 in NNE 3.7 mph 5.8 mph 78 % 0.00 in
09:26 70.1 °F 62.6 °F 30.05 in WNW 1.4 mph 3.5 mph 77 % 0.00 in
09:31 70.2 °F 63.4 °F 30.05 in NNE 3.2 mph 4.0 mph 79 % 0.00 in
09:36 70.2 °F 63.0 °F 30.04 in NNE 3.2 mph 6.9 mph 78 % 0.00 in
09:41 70.2 °F 63.0 °F 30.04 in North 2.4 mph 4.6 mph 78 % 0.00 in
09:46 70.3 °F 63.1 °F 30.03 in NNE 4.6 mph 6.0 mph 78 % 0.00 in
09:52 70.6 °F 63.4 °F 30.03 in North 0.7 mph 2.3 mph 78 % 0.00 in
09:57 71.0 °F 63.1 °F 30.03 in NE 4.6 mph 4.6 mph 76 % 0.00 in
10:02 71.7 °F 63.4 °F 30.03 in ENE 2.7 mph 5.0 mph 75 % 0.00 in
10:07 72.5 °F 64.1 °F 30.03 in ENE 2.8 mph 7.0 mph 75 % 0.00 in
10:12 73.3 °F 64.5 °F 30.03 in NE 2.0 mph 3.5 mph 74 % 0.00 in
10:17 74.3 °F 65.1 °F 30.03 in ENE 2.3 mph 4.0 mph 73 % 0.00 in
10:22 75.3 °F 65.2 °F 30.03 in NE 2.7 mph 4.6 mph 71 % 0.00 in
10:27 76.4 °F 65.5 °F 30.03 in NE 3.4 mph 7.0 mph 69 % 0.00 in
10:32 77.0 °F 65.6 °F 30.04 in NNE 4.2 mph 4.6 mph 68 % 0.00 in
10:37 77.7 °F 66.3 °F 30.04 in NNE 2.3 mph 4.0 mph 68 % 0.00 in
10:43 78.2 °F 64.6 °F 30.04 in North 2.2 mph 4.6 mph 63 % 0.00 in
10:48 78.6 °F 64.5 °F 30.04 in North 2.9 mph 5.8 mph 62 % 0.00 in
10:53 79.0 °F 63.4 °F 30.04 in ENE 3.1 mph 4.6 mph 59 % 0.00 in
10:58 79.4 °F 65.7 °F 30.04 in NNE 1.8 mph 3.5 mph 63 % 0.00 in
11:03 79.8 °F 65.6 °F 30.04 in North 3.5 mph 4.6 mph 62 % 0.00 in
11:08 80.1 °F 65.4 °F 30.04 in NNW 2.1 mph 5.8 mph 61 % 0.00 in
11:13 80.4 °F 64.8 °F 30.04 in WNW 1.8 mph 5.0 mph 59 % 0.00 in
11:18 80.6 °F 64.5 °F 30.04 in WNW 2.6 mph 4.6 mph 58 % 0.00 in
11:23 80.6 °F 64.9 °F 30.04 in WNW 1.8 mph 3.5 mph 59 % 0.00 in
11:28 80.6 °F 64.9 °F 30.04 in NNW 0.8 mph 3.5 mph 59 % 0.00 in
11:34 80.5 °F 62.8 °F 30.05 in NW 1.6 mph 3.5 mph 55 % 0.00 in
11:39 80.6 °F 63.5 °F 30.05 in NNW 2.0 mph 4.6 mph 56 % 0.00 in
11:44 80.9 °F 65.2 °F 30.05 in NNE 1.3 mph 4.0 mph 59 % 0.00 in
11:49 81.1 °F 62.9 °F 30.05 in North 2.2 mph 3.5 mph 54 % 0.00 in
11:54 81.0 °F 65.3 °F 30.05 in NW 1.7 mph 4.6 mph 59 % 0.00 in
11:59 81.3 °F 64.6 °F 30.05 in NNE 1.7 mph 5.0 mph 57 % 0.00 in
12:04 81.5 °F 63.3 °F 30.05 in NNE 1.1 mph 4.6 mph 54 % 0.00 in
12:09 81.5 °F 64.3 °F 30.05 in NNW 3.1 mph 4.6 mph 56 % 0.00 in
12:14 81.6 °F 62.8 °F 30.05 in NNE 1.5 mph 5.0 mph 53 % 0.00 in
12:19 81.8 °F 64.6 °F 30.05 in NNW 1.1 mph 2.3 mph 56 % 0.00 in
12:25 82.2 °F 65.4 °F 30.05 in NNW 0.7 mph 3.5 mph 57 % 0.00 in
12:30 82.4 °F 65.1 °F 30.05 in North 0.4 mph 2.3 mph 56 % 0.00 in
12:35 82.1 °F 62.7 °F 30.05 in NNW 0.6 mph 2.3 mph 52 % 0.00 in
12:40 82.0 °F 63.7 °F 30.05 in WNW 0.7 mph 3.5 mph 54 % 0.00 in
12:45 82.4 °F 63.5 °F 30.05 in NNE 1.1 mph 3.5 mph 53 % 0.00 in
12:50 82.7 °F 63.3 °F 30.04 in NNE 2.6 mph 4.6 mph 52 % 0.00 in
12:55 82.8 °F 63.9 °F 30.04 in North 3.8 mph 6.9 mph 53 % 0.00 in
13:00 82.7 °F 64.9 °F 30.04 in NNE 3.5 mph 4.6 mph 55 % 0.00 in
13:05 82.6 °F 64.8 °F 30.04 in NNE 2.8 mph 5.0 mph 55 % 0.00 in
13:10 82.6 °F 62.1 °F 30.04 in WNW 2.5 mph 3.5 mph 50 % 0.00 in
13:16 83.0 °F 63.5 °F 30.04 in NW 2.0 mph 4.0 mph 52 % 0.00 in
13:21 82.9 °F 64.0 °F 30.04 in North 2.0 mph 6.0 mph 53 % 0.00 in
13:26 82.9 °F 62.9 °F 30.04 in NNW 1.0 mph 4.0 mph 51 % 0.00 in
13:31 83.1 °F 63.7 °F 30.04 in NNW 1.0 mph 5.0 mph 52 % 0.00 in
13:36 83.3 °F 63.8 °F 30.04 in NNE 1.0 mph 6.0 mph 52 % 0.00 in
13:41 82.9 °F 62.4 °F 30.04 in NNE 3.0 mph 6.0 mph 50 % 0.00 in
13:46 82.8 °F 63.4 °F 30.04 in NE 1.0 mph 3.0 mph 52 % 0.00 in
13:51 82.5 °F 62.6 °F 30.04 in ENE 3.0 mph 6.0 mph 51 % 0.00 in
13:56 82.3 °F 61.8 °F 30.04 in NE 3.0 mph 6.0 mph 50 % 0.00 in
14:01 82.1 °F 61.0 °F 30.04 in ENE 2.4 mph 4.6 mph 49 % 0.00 in
14:06 81.9 °F 61.4 °F 30.04 in ENE 2.3 mph 4.0 mph 50 % 0.00 in
14:11 81.7 °F 62.4 °F 30.04 in NE 1.4 mph 3.5 mph 52 % 0.00 in
14:16 81.8 °F 63.0 °F 30.04 in NNE 3.3 mph 5.8 mph 53 % 0.00 in
14:21 81.8 °F 64.6 °F 30.04 in NNE 0.6 mph 4.6 mph 56 % 0.00 in
14:26 82.0 °F 62.6 °F 30.04 in ENE 1.9 mph 5.8 mph 52 % 0.00 in
14:31 82.1 °F 63.8 °F 30.04 in NNE 0.7 mph 6.9 mph 54 % 0.00 in
14:36 82.3 °F 62.9 °F 30.05 in NNE 2.4 mph 6.9 mph 52 % 0.00 in
14:41 82.4 °F 62.5 °F 30.05 in ENE 2.4 mph 3.5 mph 51 % 0.00 in
14:47 82.5 °F 62.5 °F 30.05 in North 2.0 mph 6.0 mph 51 % 0.00 in
14:52 82.5 °F 62.5 °F 30.05 in NNE 0.7 mph 2.0 mph 51 % 0.00 in
14:57 82.7 °F 63.8 °F 30.06 in North 0.4 mph 2.3 mph 53 % 0.00 in
15:02 82.7 °F 63.8 °F 30.06 in NNW 1.9 mph 4.0 mph 53 % 0.00 in
15:07 82.4 °F 61.9 °F 30.07 in NE 3.1 mph 4.6 mph 50 % 0.00 in
15:12 82.3 °F 62.9 °F 30.07 in ENE 1.6 mph 4.0 mph 52 % 0.00 in
15:17 81.8 °F 62.5 °F 30.07 in NNE 1.7 mph 4.0 mph 52 % 0.00 in
15:22 81.4 °F 62.1 °F 30.07 in NE 0.9 mph 3.5 mph 52 % 0.00 in
15:27 80.9 °F 63.2 °F 30.06 in NNE 2.3 mph 3.5 mph 55 % 0.00 in
15:32 80.5 °F 61.8 °F 30.07 in Calm   1.2 mph 53 % 0.00 in
15:38 80.2 °F 62.0 °F 30.07 in North 2.6 mph 3.5 mph 54 % 0.00 in
15:43 79.8 °F 62.2 °F 30.07 in North 1.1 mph 3.5 mph 55 % 0.00 in
15:48 79.8 °F 63.2 °F 30.07 in NNE 0.6 mph 2.3 mph 57 % 0.00 in
15:53 79.9 °F 62.8 °F 30.07 in North 2.1 mph 3.5 mph 56 % 0.00 in
15:58 80.1 °F 64.0 °F 30.07 in NNE 1.3 mph 3.5 mph 58 % 0.00 in
16:03 80.3 °F 63.2 °F 30.07 in NNE 1.6 mph 2.3 mph 56 % 0.00 in
16:08 80.4 °F 63.3 °F 30.06 in NE 2.3 mph 4.6 mph 56 % 0.00 in
16:13 80.7 °F 63.0 °F 30.06 in NNE 0.5 mph 2.0 mph 55 % 0.00 in
16:18 81.1 °F 62.9 °F 30.06 in North 2.3 mph 3.5 mph 54 % 0.00 in
16:23 81.2 °F 62.4 °F 30.06 in NE 1.2 mph 2.3 mph 53 % 0.00 in
16:29 81.2 °F 62.4 °F 30.06 in Calm   2.3 mph 53 % 0.00 in
16:34 81.4 °F 62.6 °F 30.06 in ENE 1.4 mph 3.5 mph 53 % 0.00 in
16:39 81.4 °F 62.1 °F 30.06 in NE 2.0 mph 3.5 mph 52 % 0.00 in
16:44 81.4 °F 61.5 °F 30.06 in NNE 2.0 mph 4.0 mph 51 % 0.00 in
16:49 81.5 °F 63.3 °F 30.05 in NNE 0.5 mph 2.3 mph 54 % 0.00 in
16:54 81.5 °F 62.2 °F 30.05 in ENE 1.2 mph 3.0 mph 52 % 0.00 in
16:59 81.5 °F 62.2 °F 30.05 in Calm   1.2 mph 52 % 0.00 in
17:04 81.3 °F 61.4 °F 30.05 in North 1.0 mph 3.5 mph 51 % 0.00 in
17:09 81.0 °F 61.7 °F 30.04 in North 0.3 mph 1.2 mph 52 % 0.00 in
17:14 80.9 °F 61.6 °F 30.04 in North 0.6 mph 1.2 mph 52 % 0.00 in
17:20 80.5 °F 60.7 °F 30.04 in NE 0.2 mph 1.2 mph 51 % 0.00 in
17:25 80.3 °F 60.5 °F 30.04 in NE 1.8 mph 3.0 mph 51 % 0.00 in
17:30 80.2 °F 61.0 °F 30.04 in NE 0.2 mph 1.2 mph 52 % 0.00 in
17:35 79.7 °F 61.1 °F 30.04 in NE 0.5 mph 2.3 mph 53 % 0.00 in
17:40 79.5 °F 61.9 °F 30.04 in NE 0.1 mph 1.2 mph 55 % 0.00 in
17:45 79.3 °F 61.7 °F 30.03 in Calm   1.2 mph 55 % 0.00 in
17:50 79.1 °F 61.0 °F 30.04 in NE 0.1 mph 2.3 mph 54 % 0.00 in
17:55 78.8 °F 61.3 °F 30.04 in Calm   1.2 mph 55 % 0.00 in
18:00 78.6 °F 60.6 °F 30.04 in NE 0.4 mph 2.3 mph 54 % 0.00 in
18:05 78.4 °F 60.9 °F 30.04 in Calm     55 % 0.00 in
18:11 78.3 °F 61.3 °F 30.04 in Calm   1.0 mph 56 % 0.00 in
18:16 78.1 °F 61.1 °F 30.03 in NE 1.0 mph 3.0 mph 56 % 0.00 in
18:21 77.8 °F 60.4 °F 30.04 in Calm   1.0 mph 55 % 0.00 in
18:26 77.7 °F 60.8 °F 30.03 in Calm   2.0 mph 56 % 0.00 in
18:31 77.5 °F 61.1 °F 30.04 in Calm   2.0 mph 57 % 0.00 in
18:36 77.3 °F 60.9 °F 30.04 in Calm   1.0 mph 57 % 0.00 in
18:41 77.3 °F 61.8 °F 30.04 in Calm     59 % 0.00 in
18:45 77.2 °F 62.2 °F 30.04 in Calm     60 % 0.00 in
18:51 77.3 °F 61.4 °F 30.04 in Calm     58 % 0.00 in
18:56 77.4 °F 61.4 °F 30.04 in Calm     58 % 0.00 in
19:00 77.3 °F 61.4 °F 30.04 in Calm     58 % 0.00 in
19:06 77.2 °F 60.8 °F 30.04 in Calm     57 % 0.00 in
19:11 77.0 °F 62.5 °F 30.05 in Calm     61 % 0.00 in
19:15 76.9 °F 62.4 °F 30.05 in Calm     61 % 0.00 in
19:21 76.7 °F 62.7 °F 30.05 in Calm     62 % 0.00 in
19:26 76.5 °F 63.0 °F 30.05 in Calm     63 % 0.00 in
19:30 76.3 °F 63.2 °F 30.05 in Calm     64 % 0.00 in
19:36 76.1 °F 62.6 °F 30.05 in Calm     63 % 0.00 in
19:41 76.0 °F 63.3 °F 30.05 in Calm     65 % 0.00 in
19:45 75.7 °F 63.1 °F 30.06 in Calm     65 % 0.00 in
19:51 75.5 °F 62.0 °F 30.06 in Calm     63 % 0.00 in
19:56 75.3 °F 62.3 °F 30.06 in Calm     64 % 0.00 in
20:00 75.1 °F 62.5 °F 30.05 in Calm     65 % 0.00 in
20:06 74.9 °F 62.3 °F 30.05 in Calm     65 % 0.00 in
20:11 74.7 °F 62.2 °F 30.05 in Calm     65 % 0.00 in
20:15 74.5 °F 62.0 °F 30.05 in Calm     65 % 0.00 in
20:21 74.3 °F 61.8 °F 30.05 in Calm     65 % 0.00 in
20:26 74.1 °F 62.0 °F 30.06 in Calm     66 % 0.00 in
20:30 73.9 °F 61.8 °F 30.06 in Calm     66 % 0.00 in
20:36 73.7 °F 62.1 °F 30.06 in Calm     67 % 0.00 in
20:41 73.5 °F 62.3 °F 30.06 in Calm     68 % 0.00 in
20:45 73.3 °F 62.9 °F 30.06 in Calm     70 % 0.00 in
20:51 73.0 °F 62.7 °F 30.06 in Calm     70 % 0.00 in
20:56 72.8 °F 62.4 °F 30.06 in Calm     70 % 0.00 in
21:00 72.4 °F 63.3 °F 30.07 in Calm     73 % 0.00 in
21:06 72.1 °F 63.0 °F 30.07 in Calm     73 % 0.00 in
21:11 71.8 °F 63.1 °F 30.07 in Calm     74 % 0.00 in
21:16 71.5 °F 62.8 °F 30.07 in Calm     74 % 0.00 in
21:21 71.2 °F 62.5 °F 30.07 in Calm     74 % 0.00 in
21:26 70.9 °F 62.6 °F 30.07 in Calm     75 % 0.00 in
21:31 70.6 °F 62.3 °F 30.07 in Calm     75 % 0.00 in
21:36 70.4 °F 62.4 °F 30.07 in Calm     76 % 0.00 in
21:40 70.1 °F 62.2 °F 30.07 in Calm     76 % 0.00 in
21:45 69.9 °F 62.4 °F 30.07 in Calm     77 % 0.00 in
21:51 69.6 °F 62.1 °F 30.07 in Calm     77 % 0.00 in
21:56 69.4 °F 61.9 °F 30.07 in Calm     77 % 0.00 in
22:01 69.2 °F 62.0 °F 30.07 in Calm     78 % 0.00 in
22:06 69.1 °F 61.9 °F 30.07 in Calm     78 % 0.00 in
22:11 68.9 °F 61.8 °F 30.07 in Calm     78 % 0.00 in
22:15 68.8 °F 62.0 °F 30.07 in Calm     79 % 0.00 in
22:21 68.6 °F 61.8 °F 30.07 in Calm     79 % 0.00 in
22:26 68.4 °F 61.6 °F 30.08 in Calm     79 % 0.00 in
22:30 68.3 °F 61.9 °F 30.08 in Calm   1.0 mph 80 % 0.00 in
22:35 68.1 °F 61.7 °F 30.08 in Calm   1.0 mph 80 % 0.00 in
22:41 68.0 °F 61.9 °F 30.07 in Calm   1.0 mph 81 % 0.00 in
22:45 67.9 °F 61.9 °F 30.08 in Calm   1.0 mph 81 % 0.00 in
22:50 67.8 °F 61.8 °F 30.08 in Calm     81 % 0.00 in
22:52 67.7 °F 61.7 °F 30.07 in NE 0.2 mph 1.0 mph 81 % 0.00 in
22:57 67.6 °F 61.9 °F 30.08 in Calm   1.2 mph 82 % 0.00 in
23:02 67.5 °F 62.2 °F 30.07 in Calm     83 % 0.00 in
23:08 67.4 °F 62.1 °F 30.07 in Calm     83 % 0.00 in
23:13 67.4 °F 62.1 °F 30.07 in Calm     83 % 0.00 in
23:18 67.3 °F 62.3 °F 30.07 in WSW 0.2 mph 1.2 mph 84 % 0.00 in
23:23 67.2 °F 62.2 °F 30.07 in Calm     84 % 0.00 in
23:28 67.1 °F 62.1 °F 30.07 in Calm   1.0 mph 84 % 0.00 in
23:33 67.0 °F 62.3 °F 30.08 in SW 0.5 mph 2.3 mph 85 % 0.00 in
23:38 67.0 °F 62.3 °F 30.08 in Calm   1.2 mph 85 % 0.00 in
23:43 66.9 °F 62.2 °F 30.08 in Calm     85 % 0.00 in
23:48 66.9 °F 62.2 °F 30.07 in Calm   1.2 mph 85 % 0.00 in
23:53 66.8 °F 62.1 °F 30.08 in SW 0.4 mph   85 % 0.00 in
23:59 66.8 °F 62.1 °F 30.08 in SW 0.1 mph 1.2 mph 85 % 0.00 in
Crab Meadow Weather
Compliments of Weather Underground - 3 mb

Script developed by  Jim McMurry - jmcmurry@mwt.net Adapted for the template by  Wim van der Kuil - Leuven-Template.eu

Heat Index: The heat index combines air temperature and dew point in an attempt to determine the human-perceived equivalent temperature - how hot it feels. The human body normally cools itself by sweating, which evaporates and carries heat away from the body. However, when the relative humidity is high the evaporation rate is reduced, so heat is removed from the body at a lower rate causing it to retain more heat than it would in dry air.